Regional Weather Roundup
Issued by NWS

Home | Current Version | Previous Version | Graphics & Text | Print | Product List | Glossary On
Versions: 1 2 3 4 5 6 7 8 9 10 11 12 13 14 15 16 17 18 19 20 21 22 23 24 25 26 27 28 29 30 31 32 33 34 35 36 37 38 39 40 41 42 43 44 45 46 47 48 49 50
000
ASUS43 KMKX 170120
RWRWI

WISCONSIN REGIONAL WEATHER ROUNDUP
NATIONAL WEATHER SERVICE MILWAUKEE/SULLIVAN WI
700 PM CST MON JAN 16 2017

NOTE: "FAIR" INDICATES FEW OR NO CLOUDS BELOW 12,000 FEET WITH NO
SIGNIFICANT WEATHER AND/OR OBSTRUCTIONS TO VISIBILITY.

WIZ001-002-006>008-014>016-023>028-170200-
NORTHWEST WISCONSIN

CITY           SKY/WX    TMP DP  RH WIND       PRES   REMARKS
SUPERIOR ARPT  CLOUDY    20  16  83 CALM      30.07S
ASHLAND        CLOUDY    31  21  66 S7        30.08F WCI  24
HAYWARD        CLOUDY    26  18  71 NE5       30.05F WCI  20
SIREN          CLOUDY    25  20  79 CALM      30.05F
CUMBERLAND     CLOUDY    27  18  69 E5        30.03F WCI  21
RICE LAKE      CLOUDY    26  19  77 CALM      30.05F
CHETEK         CLOUDY    27  21  76 E3        30.04F
LADYSMITH      CLOUDY    30  19  64 E5        30.06F WCI  25
EAU CLAIRE     FRZ RAIN  29  25  85 NE7       30.02F FOG     WCI  22
MENOMONIE      MIX PCPN  31  26  83 NE3       30.03F
NEW RICHMOND   MIX PCPN  29  22  74 E7        30.02F WCI  22
OSCEOLA        CLOUDY    29  20  69 NE5       30.06S WCI  24
$$

WIZ003>005-009-010-017-018-170200-
NORTH CENTRAL WISCONSIN

CITY           SKY/WX    TMP DP  RH WIND       PRES   REMARKS
MANITOWISH WTR CLOUDY    20  17  90 CALM      30.05F
ARBOR VITAE    CLOUDY    23  20  87 CALM      30.05F
WOODRUFF       CLOUDY    23  20  87 CALM      30.05F
RHINELANDER    CLOUDY    28  21  75 CALM      30.05F
EAGLE RIVER    CLOUDY    25  20  82 CALM      30.06S
LAND O LAKES   CLOUDY    22  19  86 CALM      30.08F
PHILLIPS       CLOUDY    27  20  72 CALM      30.04S
TOMAHAWK       CLOUDY    25  19  79 CALM      30.06S
MEDFORD        MIX PCPN  30  23  74 E6        30.03S WCI  24
MERRILL        CLOUDY    29  22  75 CALM        N/A
$$

WIZ029-030-035-036-043>047-170200-
CENTRAL WISCONSIN

CITY           SKY/WX    TMP DP  RH WIND       PRES   REMARKS
WAUSAU         FRZ RAIN  30  22  72 E5        30.05S WCI  25
MOSINEE        LGT SNOW  28  27  93 E7        30.06F WCI  21
MARSHFIELD     FRZ RAIN  30  27  88 E8        30.01F FOG     WCI  22
STEVENS POINT  MIX PCPN  28  28  99 E8        30.06F WCI  20
WAUPACA        MIX PCPN  33  30  90 CALM      30.07F
WAUTOMA        FRZ RAIN  32  31  96 E10       30.04F FOG     WCI  24
WISC RAPIDS    MIX PCPN  31  30  96 E7        30.04F FOG     WCI  24
CAMP DOUGLAS   LGT RAIN  33  31  95 E6        30.00F WCI  27
$$

WIZ011>013-019>022-031-037>040-048>050-170200-
NORTHEAST WISCONSIN

CITY           SKY/WX    TMP DP  RH WIND       PRES   REMARKS
ANTIGO         CLOUDY    29  21  72 SE6       30.06S WCI  23
SHAWANO        LGT RAIN  31  24  73 CALM      30.11S
OCONTO         CLOUDY    30  20  66 CALM      30.11F
STURGEON BAY   CLOUDY    30  23  74 E5        30.11F WCI  25
GREEN BAY      FRZ RAIN  33  30  88 NE6       30.10F FOG     WCI  28
MANITOWOC      RAIN      33  31  92 E9        30.10F WCI  25
APPLETON       FRZ RAIN  30  30 100 NE6       30.05F WCI  24
CLINTONVILLE   MIX PCPN  30  28  93 NE5       30.09F WCI  25
OSHKOSH        LGT RAIN  33  31  92 E7        30.05F FOG     WCI  27
$$

WIZ032>034-041-042-053>061-170200-
SOUTHWEST WISCONSIN

CITY           SKY/WX    TMP DP  RH WIND       PRES   REMARKS
LA CROSSE      LGT RAIN  38  32  79 E7        29.99F WCI  33
SPARTA         MIX PCPN  32  32  99 E8        30.00F WCI  25
VIROQUA        CLOUDY    32  32 100 E5        29.95S WCI  28
BOSCOBEL       CLOUDY    34  32  92 NE6       29.97F FOG     WCI  29
PRAIRIE DU CHI MIX PCPN  33  32  96 CALM      29.96F
PLATTEVILLE    CLOUDY    34  34 100 E13       29.94F WCI  25
$$

WIZ056-057-062-063-064-067-068-170200-
SOUTH CENTRAL WISCONSIN

CITY           SKY/WX    TMP DP  RH WIND       PRES   REMARKS
REEDSBURG      LGT RAIN  32  32 100 E5        29.98F WCI  27
BARABOO/DELLS  CLOUDY    32  32  99 E8        29.99F FOG     WCI  25
LONE ROCK      LGT RAIN  34  32  92 E7        29.99F FOG     WCI  28
MINERAL POINT  LGT RAIN  34  34 100 E10       29.94S WCI  26
MADISON        RAIN      33  32  96 E10       29.98F FOG     WCI  25
MIDDLETON      CLOUDY    34  34 100 E8        29.98F WCI  27
WATERTOWN      MIX PCPN  33  33 100 E9        30.00F WCI  26
MONROE         MIX PCPN  32  32 100 E8        29.96R VSB 1   WCI  25
JANESVILLE     LGT RAIN  36  36 100 E18       29.94F FOG     WCI  25
$$

WIZ051-052-058>065-066-070>072-170200-
SOUTHEAST WISCONSIN

CITY           SKY/WX    TMP DP  RH WIND       PRES   REMARKS
MILWAUKEE      LGT RAIN  36  34  92 E14       30.04F FOG     WCI  27
WAUKESHA       LGT RAIN  32  32 100 E17       30.03F FOG     WCI  21
MILWAUKEE/TIMM LGT RAIN  34  32  93 E9        30.04F FOG     WCI  26
RACINE         LGT RAIN  36  34  92 E12       30.05F FOG     WCI  28
KENOSHA        CLOUDY    36  35  96 E10       30.01F FOG     WCI  28
FOND DU LAC    RAIN      35  31  85 E12       30.02F WCI  27
SHEBOYGAN      LGT RAIN  33  32  96 E8        30.08F FOG     WCI  26
WEST BEND      RAIN      32  32 100 E8        30.03F WCI  25
JUNEAU         RAIN      33  32  96 E10       30.03S WCI  25
$$

LSZ147-162-170200-
LAKE SUPERIOR

STATION/POSITION TIME  TEMP    WIND        PRES    WAVE
                       AIR SEA DIR/SP/G            HT/PER
                 (UTC) (F)     (DEG/KT/KT) (MB)    (FT/S)
DEVILS ISLAND    0000   32      CALM  /  2 1019.5R
PORT WING        0040   24      CALM  /  2 1018.6S
SAXON HARBOR     0040   27     190/  3/  4 1018.3F
$$

LMZ867-665-643>646-170200-
LAKE MICHIGAN

STATION/POSITION TIME  TEMP    WIND        PRES    WAVE
                       AIR SEA DIR/SP/G            HT/PER
                 (UTC) (F)     (DEG/KT/KT) (MB)    (FT/S)
NORTHPORT PIER   0040   30        CALM     1020.3F
SISTER BAY       0050   31        CALM       N/A
ALGOMA LAKESHORE 0023             CALM       N/A
KEWAUNEE LAKESHO 0048   34     120/  5/  6 1019.1F
SHEBOYGAN LAKESH 0100   35      90/ 11/ 12 1019.2F
PORT WASHINGTON  0040   35      90/ 12/ 13 1019.3F
MILWAUKEE LAKESH 0100   35      90/ 12/ 13   N/A
KENOSHA   LAKESH 0100   35     100/ 10/ 11 1016.6
$$

TC  - TEMPERATURE IN CELSIUS
VSB - VISIBILITY IN STATUTE MILES
WCI - WIND CHILL INDEX
HX  - HEAT INDEX




USA.gov is the U.S. government's official web portal to all federal, state and local government web resources and services.